TimeCDT,TemperatureF,Dew PointF,Humidity,Sea Level PressureIn,VisibilityMPH,Wind Direction,Wind SpeedMPH,Gust SpeedMPH,PrecipitationIn,Events,Conditions,WindDirDegrees,DateUTC
12:53 AM,64.0,48.9,58,30.18,10.0,South,8.1,-,N/A,,Clear,180,2013-05-14 05:53:00
1:53 AM,63.0,50.0,63,30.17,10.0,South,9.2,-,N/A,,Clear,190,2013-05-14 06:53:00
2:53 AM,63.0,51.1,65,30.15,10.0,South,9.2,-,N/A,,Clear,180,2013-05-14 07:53:00
3:53 AM,63.0,52.0,67,30.14,10.0,South,10.4,-,N/A,,Clear,190,2013-05-14 08:53:00
4:53 AM,62.1,52.0,70,30.15,10.0,SSW,8.1,-,N/A,,Clear,200,2013-05-14 09:53:00
5:53 AM,61.0,53.1,75,30.16,10.0,South,8.1,-,N/A,,Clear,190,2013-05-14 10:53:00
6:53 AM,57.9,53.1,84,30.17,10.0,Calm,Calm,-,N/A,,Clear,0,2013-05-14 11:53:00
7:53 AM,63.0,55.0,75,30.18,10.0,South,6.9,-,N/A,,Clear,190,2013-05-14 12:53:00
8:53 AM,68.0,55.0,63,30.19,8.0,SSW,11.5,-,N/A,,Clear,210,2013-05-14 13:53:00
9:53 AM,72.0,55.0,55,30.21,10.0,SW,8.1,-,N/A,,Clear,230,2013-05-14 14:53:00
10:53 AM,75.9,54.0,46,30.21,10.0,SSW,11.5,-,N/A,,Clear,210,2013-05-14 15:53:00
11:53 AM,79.0,54.0,42,30.20,10.0,SW,10.4,-,N/A,,Clear,220,2013-05-14 16:53:00
12:53 PM,82.9,50.0,32,30.17,10.0,South,13.8,-,N/A,,Clear,190,2013-05-14 17:53:00
1:53 PM,84.0,50.0,31,30.14,10.0,SW,8.1,17.3,N/A,,Clear,220,2013-05-14 18:53:00
2:53 PM,86.0,42.1,21,30.12,10.0,South,13.8,-,N/A,,Clear,190,2013-05-14 19:53:00
3:53 PM,87.1,45.0,23,30.10,10.0,SSW,11.5,24.2,N/A,,Clear,200,2013-05-14 20:53:00
4:53 PM,84.9,45.0,25,30.08,10.0,South,16.1,23.0,N/A,,Clear,170,2013-05-14 21:53:00
5:53 PM,84.9,46.0,26,30.06,10.0,South,11.5,23.0,N/A,,Clear,180,2013-05-14 22:53:00
6:53 PM,82.0,46.9,29,30.05,10.0,South,11.5,23.0,N/A,,Clear,190,2013-05-14 23:53:00
7:53 PM,79.0,51.1,38,30.04,10.0,South,10.4,18.4,N/A,,Clear,180,2013-05-15 00:53:00
8:53 PM,72.0,54.0,53,30.04,10.0,SSE,5.8,-,N/A,,Clear,160,2013-05-15 01:53:00
9:53 PM,72.0,55.0,55,30.06,10.0,SSE,8.1,-,N/A,,Clear,150,2013-05-15 02:53:00
10:53 PM,72.0,48.9,44,30.08,10.0,SSE,10.4,-,N/A,,Clear,160,2013-05-15 03:53:00
11:53 PM,71.1,50.0,47,30.09,10.0,South,12.7,-,N/A,,Clear,170,2013-05-15 04:53:00